Location: Milton Keynes
(52.0316°N, 0.7531°W)
Time: 20:06:40
(UTC+01:00)

Starlink (trailer) - Visible Passes

Search period start: 16 October 2019 00:00
Search period end: 26 October 2019 00:00
Orbit: 549 x 551 km, 53.0° (Epoch: 16 October)

Date Brightness Start Highest point End Pass type
(mag) Time Alt. Az. Time Alt. Az. Time Alt. Az.
16 Oct 3.5 20:04:04 10° WSW 20:08:13 89° SSE 20:09:14 51° ENE visible
16 Oct 6.3 21:43:46 10° W 21:44:53 18° W 21:44:53 18° W visible
17 Oct 3.5 19:58:41 10° W 20:02:50 84° N 20:04:01 46° ENE visible
17 Oct 6.2 21:38:23 10° WNW 21:39:40 19° WNW 21:39:40 19° WNW visible
18 Oct 3.6 19:53:18 10° W 19:57:27 80° N 19:58:45 43° ENE visible
18 Oct 6.1 21:33:00 10° WNW 21:34:24 21° WNW 21:34:24 21° WNW visible
19 Oct 3.6 19:47:55 10° W 19:52:05 77° N 19:53:29 40° ENE visible
19 Oct 6.0 21:27:36 10° WNW 21:29:08 22° WNW 21:29:08 22° WNW visible
20 Oct 3.6 19:42:32 10° W 19:46:42 76° N 19:48:13 38° ENE visible
20 Oct 5.9 21:22:13 10° WNW 21:23:52 23° W 21:23:52 23° W visible
21 Oct 3.6 19:37:10 10° W 19:41:20 77° N 19:42:56 36° E visible
21 Oct 5.8 21:16:49 10° WNW 21:18:35 24° W 21:18:35 24° W visible
22 Oct 3.6 19:31:46 10° W 19:35:56 80° N 19:37:41 34° E visible
22 Oct 5.7 21:11:25 10° WNW 21:13:20 25° W 21:13:20 25° W visible
23 Oct 3.6 19:26:22 10° W 19:30:32 84° N 19:32:27 31° E visible
23 Oct 5.6 21:06:03 10° WNW 21:08:06 26° W 21:08:06 26° W visible
24 Oct 3.6 19:20:59 10° WNW 19:25:08 90° SW 19:27:14 28° ESE visible
24 Oct 5.6 21:00:41 10° W 21:02:53 26° WSW 21:02:53 26° WSW visible
25 Oct 3.6 19:15:33 10° WNW 19:19:43 82° SSW 19:22:05 25° ESE visible
25 Oct 5.6 20:55:21 10° W 20:57:44 25° WSW 20:57:44 25° WSW visible
